STARLINK-3857, 52494

Orbit data source: Space-Track

STARLINK-3857, 52494 is a payload satellite owned by SpaceX/Seattle (US) in LEO that was launched on Fri, 06 May 2022 UTC via an FALCON 9 launch vehicle from the Air Force Eastern Test Range (AFETR). Payload-class satellites include a variety of spacecraft equipped with specific instruments for various scientific and technological missions. These include communications satellites like Starlink; space stations such as the ISS; scientific satellites like the Hubble; Earth observation satellites from companies like Planet Labs, Umbra, and HawkEye 360; GPS; miniature CubeSats for education and research; and military/defense satellites.

Loading next visibility...
Identifier
52494, 2022-049AV
Orbit
LEO
Country
Flag of USUS
Related business
Manufacturer
SpaceX/Seattle
Mission
Operational Commercial Communications
Bus & Motor
STARLINK, Unknown motor
Mass
297 kg wet, ~220 kg dry
Launch date (UTC)
2022-05-06 (4 years ago)
Launch vehicle
FALCON 9
Launch site
Air Force Eastern Test Range (AFETR)
Object type
Payload
Rocket body
Debris
Shape & HBR
Box + 1 Pan, 10.1 m
Radar Cross Section
13.562 m², Large (>1 m²)

Expand to show TLE details & history
Last TLE update: 12 hours ago

TLE from 12 hours ago
0 STARLINK-3857
1 52494U 22049AV  26219.88448449  .00000657  00000-0  29735-4 0  9998
2 52494  53.1608  82.0763 0001208  71.5496 288.5639 15.35399888235334
Epoch: 2026-08-07T21:13Z
TLE epoch observation values (Epoch: 2026-08-07T21:13:39.459Z)
Latitude
0.00001°
Longitude
167.25812°
Altitude
460.372 km
Speed
7.638 km/s
True Right ascension
05h 28m 18s
True Declination
0° 00' 00"
Sunlit
Object was in daylight at epoch
Visualization orbit readout
Latitude
Unknown
Longitude
Unknown
Altitude
Unknown
Speed
Unknown
Apparent Right ascension
Unknown
Apparent Declination
Unknown
Sunlit
N/A
Visualization observer readout
Local Sidereal Time
23:46:36
Azimuth
Unknown
Elevation
Unknown
Doppler factor
Unknown
Orbital elements
Apogee altitude
460.816 km
Perigee altitude
459.164 km
Semi-major axis
6,838.127 km
Eccentricity
0.00012
Inclination
53.1608°
RAAN
82.0763°
Arg. of periapsis
71.5496°
True anomaly
288.55078°
Mean anomaly
288.5639°
Eccentric anomaly
288.55734°
Mean motion
3.83829 °/min
Orbital period
93.79 mins
BSTAR
0.000029735
Loading maneuver chart data...
Computing Atmospheric mass density...
Loading historical data...
Loading historical data...
Loading historical data...
Loading historical data...
Loading historical data...
Loading historical data...
Loading historical data...

Documentation

Showing up to 5 results
|